SCP
0 0 0 0 0 0 0 0 0 1 1 1 1 2 2 1 1 2 2 2 3 3 3 3 4 6 6 4 2 2 2 2 3 3 4 4 4 5 5 6 6 8 10 9
0 0 0 0 0 0 0 0 0 1 1 1 2 2 2 2 2 2 2 2 2 3 3 3 3 4 4 3 2 2 2 2 2 2 3 4 4 4 4 4 5 7 9 9
0 0 0 0 0 0 0 1 1 1 1 1 2 3 3 3 4 5 5 5 4 4 3 2 2 2 2 2 2 2 2 2 2 2 2 3 4 4 3 3 4 5 6 7
0 0 0 0 0 0 1 1 1 1 1 2 3 3 3 4 7 9 10 9 8 6 5 3 2 1 1 2 2 2 2 2 2 2 2 3 3 3 2 2 3 4 4 5
0 0 0 0 0 0 1 1 1 1 2 2 3 4 5 5 7 10 11 10 9 7 5 4 3 1 1 2 2 3 3 3 2 2 3 3 2 2 2 2 2 3 3 3
0 0 0 0 0 0 1 1 1 1 2 2 3 4 5 6 6 7 8 7 6 5 4 4 3 2 2 2 3 3 3 3 3 3 3 3 3 3 3 3 3 2 2 3
0 0 0 0 0 1 1 1 1 1 2 3 3 4 5 6 6 6 6 5 3 3 3 3 2 2 2 2 3 3 4 4 4 4 3 3 3 4 5 5 4 3 2 2
0 0 0 0 0 1 1 1 1 2 2 3 3 4 5 6 7 7 6 4 3 2 2 2 2 2 2 2 2 3 3 3 3 3 3 3 2 4 6 6 5 4 3 3
0 0 0 0 0 1 1 1 2 2 2 3 3 4 4 5 6 6 6 5 3 3 2 2 1 1 1 1 2 2 2 2 2 2 2 2 2 2 4 5 5 4 3 3
0 0 0 0 0 1 2 2 2 2 2 2 2 3 3 4 4 5 5 5 4 3 2 2 1 1 1 1 1 1 1 1 1 1 1 1 1 1 2 3 3 3 3 3
0 0 0 0 1 1 2 2 2 2 2 2 1 2 2 2 3 3 4 4 3 3 2 2 2 2 1 1 1 1 1 1 1 1 1 1 1 1 1 1 2 2 3 3
0 0 0 0 1 1 2 2 1 1 1 1 1 1 1 1 1 2 2 2 2 2 1 1 2 2 2 2 2 1 1 1 1 1 1 1 0 0 0 0 1 1 1 2
0 0 0 0 0 1 1 1 1 1 0 0 0 0 0 0 1 2 2 1 1 0 1 1 1 1 2 2 2 2 1 1 1 1 1 1 0 0 0 0 0 0 0 0
0 0 0 0 1 1 1 1 1 0 0 0 0 0 0 0 1 1 2 1 1 0 0 1 1 1 1 2 2 2 2 1 1 1 1 1 0 0 0 0 0 0 0 0
0 0 0 1 1 1 1 1 0 0 0 0 0 0 0 0 0 1 1 1 1 0 1 1 1 1 1 1 2 2 2 2 2 1 1 1 1 0 0 0 0 0 0 0
0 0 0 0 1 1 0 0 0 0 0 0 0 0 0 0 0 0 0 0 0 0 0 1 1 1 1 1 1 2 2 2 2 2 1 1 1 1 0 0 0 0 0 0
0 0 0 0 0 0 0 0 0 0 0 0 0 0 0 0 0 0 0 0 0 0 0 0 1 1 1 1 1 2 2 2 1 2 1 1 1 1 1 0 0 0 0 0
0 0 0 0 0 0 0 0 0 0 0 0 0 0 0 0 1 0 0 0 0 0 0 0 1 1 1 2 2 1 1 1 1 1 1 1 1 1 1 0 0 0 0 0
0 0 0 0 0 0 0 0 0 0 0 0 0 0 0 0 0 0 0 0 0 0 0 1 1 1 1 1 1 1 1 1 1 1 0 0 0 0 0 0 0 0 0 0
0 0 0 0 0 0 0 0 0 0 0 0 0 0 0 0 0 0 0 0 0 0 0 1 1 1 1 1 1 1 1 1 0 0 0 0 0 0 0 0 0 0 0 0
0 0 0 0 0 0 0 0 0 0 0 0 0 0 0 0 0 0 0 0 0 0 0 1 1 1 0 0 0 0 0 0 0 0 0 0 0 0 0 0 0 0 0 0
1 1 0 0 0 0 0 0 0 0 0 0 0 0 0 0 0 0 0 0 0 0 0 0 1 1 0 0 0 0 0 0 0 0 0 0 0 0 0 0 0 0 0 0
1 1 1 1 0 0 0 0 0 0 0 0 0 0 0 0 0 0 0 0 0 0 0 0 0 0 0 0 0 0 0 0 0 0 0 0 0 0 0 0 0 0 0 0
1 1 1 1 1 0 0 0 0 0 0 0 0 0 0 0 0 0 0 0 0 0 0 0 0 0 0 0 0 0 0 0 0 0 0 0 0 0 0 0 0 0 0 0
1 1 1 1 0 0 0 0 0 0 0 0 0 0 0 0 0 0 0 0 0 0 0 0 0 0 0 0 0 0 0 0 0 0 0 0 0 0 0 0 0 0 0 0
0 0 0 0 0 0 0 0 0 0 0 0 0 0 0 0 0 0 0 0 0 0 0 0 0 0 0 0 0 0 0 0 0 0 0 0 0 0 0 0 0 0 0 0
0 0 0 0 0 0 0 0 0 0 0 0 0 0 0 0 0 0 0 0 0 0 0 0 0 0 0 0 0 0 0 0 0 0 0 0 0 0 0 0 0 0 0 0
Wind_Speed
2 2 1 3 5 4 1 3 5 4 3 4 3 1 1 2 3 3 3 3 2 3 2 2 1 2 2 2 2 2 2 2 3 3 2 2 3 3 3 3 3 2 2 2
2 2 3 4 6 4 2 0 3 2 1 1 0 2 3 2 3 2 1 1 2 2 3 3 2 2 2 2 2 2 2 2 2 2 1 2 2 2 2 3 2 3 3 3
2 3 4 3 4 2 2 2 2 1 2 2 3 2 0 1 2 2 2 2 2 2 3 3 3 2 3 3 2 3 3 3 3 3 3 3 2 2 2 3 3 3 3 3
1 2 1 4 1 3 5 5 4 2 2 2 2 0 0 1 2 1 1 2 2 2 2 2 2 2 2 2 3 3 3 3 3 3 3 3 2 3 3 3 3 3 3 3
3 2 3 2 2 0 2 2 3 3 2 1 2 3 3 1 1 1 0 1 2 2 2 1 2 2 1 2 2 2 3 3 3 3 3 3 3 3 3 2 3 3 3 4
3 3 4 4 4 1 5 1 2 2 1 1 2 2 3 2 1 1 1 0 0 0 0 1 2 2 1 2 2 2 3 3 3 3 3 4 4 4 3 3 3 3 3 3
2 2 3 4 3 2 2 4 2 1 1 1 1 4 4 2 1 1 1 0 0 0 0 1 1 1 2 2 4 4 3 3 2 3 3 3 3 3 2 2 2 2 3 3
2 2 4 4 2 2 4 3 3 2 1 0 0 0 0 0 1 1 2 1 0 0 1 1 1 1 1 3 4 3 2 2 2 2 3 2 2 3 2 2 2 2 2 2
4 5 4 1 2 3 4 3 2 1 1 1 1 1 1 1 1 1 1 2 1 1 1 1 1 1 3 4 3 2 2 2 2 2 2 2 2 3 2 2 2 3 3 2
1 1 1 1 1 2 3 3 2 2 2 2 1 1 2 2 1 1 2 2 1 0 1 2 2 3 4 4 2 2 2 1 1 1 1 1 2 2 2 2 3 3 3 2
1 2 1 2 1 2 2 3 3 2 2 2 2 0 1 2 2 1 1 1 1 1 2 3 3 3 3 2 1 1 2 2 1 1 1 1 2 2 3 3 4 4 4 3
5 5 4 3 3 2 3 2 2 2 2 1 1 0 1 2 2 1 1 1 1 1 2 3 3 3 3 2 1 2 2 2 2 1 1 1 1 2 3 3 3 4 5 4
4 4 4 4 2 2 2 2 2 3 2 1 0 0 0 1 2 1 1 1 1 2 2 3 2 2 2 1 1 2 2 2 2 2 2 1 1 2 1 2 2 1 2 3
3 2 2 2 2 2 2 2 2 2 2 2 1 0 0 1 1 1 1 2 2 2 3 2 2 3 3 2 1 2 2 2 2 2 2 2 2 2 2 1 1 1 1 1
2 3 4 3 2 2 2 3 3 2 1 1 0 0 0 1 1 2 2 2 1 1 2 2 2 3 3 1 2 2 2 2 2 2 2 2 2 1 1 2 1 1 0 1
2 1 2 2 2 2 2 2 2 2 1 1 1 1 1 1 1 2 2 1 1 2 2 2 2 3 2 1 1 1 1 2 2 1 1 1 1 1 1 1 1 1 2 1
3 2 2 2 2 2 2 3 3 3 2 1 2 2 1 1 1 1 2 2 1 2 2 2 2 2 2 1 1 1 1 1 1 1 1 1 1 1 1 2 2 1 2 2
4 5 5 5 4 3 2 2 2 2 2 2 1 0 0 0 1 2 2 2 1 2 2 2 2 1 2 2 1 1 0 0 0 0 0 0 0 1 1 1 1 1 1 1
2 3 3 3 4 4 3 3 2 2 2 1 1 1 1 2 2 2 1 1 2 3 4 3 2 1 2 2 2 1 1 1 0 0 0 0 0 0 0 1 1 1 1 0
1 2 3 3 3 3 3 3 2 2 1 2 1 1 1 2 2 2 1 1 2 3 3 2 1 1 1 2 1 1 1 0 0 0 0 0 0 1 1 1 1 1 1 1
1 1 2 3 2 2 3 3 2 2 1 2 2 2 2 2 2 1 0 2 4 3 2 1 0 1 1 1 1 1 1 0 0 0 0 0 0 0 0 1 1 1 1 1
1 1 2 2 2 2 1 2 2 2 1 1 1 1 1 1 1 1 1 2 2 2 1 0 0 1 1 1 1 1 1 1 1 0 0 0 1 0 0 1 1 1 1 1
0 1 2 2 2 2 1 1 1 1 1 2 2 2 2 2 2 1 1 2 1 1 1 1 1 1 1 1 1 1 1 1 1 1 0 0 1 1 1 1 1 1 1 1
0 0 1 1 2 2 1 1 1 1 1 1 2 3 2 1 1 2 2 2 2 1 1 1 1 1 2 1 1 1 1 1 1 1 1 0 0 1 1 1 1 1 1 1
0 0 1 2 2 2 3 2 1 0 0 0 1 1 1 2 2 2 1 2 2 1 1 1 1 2 1 1 1 0 1 1 1 1 1 1 1 1 1 1 1 1 1 1
0 0 1 1 2 2 2 1 1 1 1 1 1 1 1 1 1 1 1 1 2 1 1 1 0 0 0 0 0 0 0 0 1 1 1 1 1 2 1 1 1 1 1 1
1 1 0 0 1 1 1 1 2 1 1 2 1 1 1 1 0 1 0 0 0 0 0 0 0 0 0 0 1 1 0 0 1 1 1 1 1 1 1 1 1 1 1 1
Wind_Direction
211 253 328 328 326 333 327 193 189 211 207 253 253 205 163 130 115 112 113 122 140 147 162 183 201 200 194 180 181 180 173 186 212 228 215 193 192 186 182 185 193 192 195 224
346 339 0 346 340 339 340 350 145 140 248 258 109 75 75 83 110 119 126 162 181 169 164 179 203 191 208 198 195 178 179 199 207 212 202 198 203 193 191 201 199 191 204 215
268 294 16 347 326 4 65 30 130 191 211 136 61 48 95 175 138 148 159 170 181 197 192 200 212 209 212 202 175 178 200 213 215 212 210 213 214 196 203 211 210 208 213 215
168 35 227 241 276 83 87 51 47 83 133 135 133 140 302 185 114 105 141 162 182 192 209 231 231 226 225 191 180 192 206 217 223 220 223 223 213 216 220 215 210 215 222 222
131 167 253 274 303 322 124 41 33 77 76 97 85 48 360 352 79 104 153 154 176 190 208 239 237 224 218 214 207 212 226 230 229 217 218 227 228 228 224 217 226 228 224 225
139 164 222 250 277 275 105 122 343 86 94 29 49 40 290 313 6 11 7 55 110 104 84 228 242 197 197 217 210 216 224 224 222 223 223 227 227 229 228 217 229 237 239 233
151 192 257 268 293 58 117 232 237 132 104 28 187 215 238 281 342 343 344 349 31 83 120 233 225 178 224 219 220 222 225 222 224 224 222 227 230 229 224 216 219 234 243 244
144 167 252 289 54 128 203 202 181 170 150 101 195 222 64 22 338 350 355 345 358 317 292 289 224 164 237 244 236 226 216 211 224 226 230 232 237 241 222 204 210 228 233 254
173 202 230 232 160 182 162 153 175 177 214 125 74 26 13 340 313 330 337 323 306 253 285 303 283 210 240 256 248 221 211 216 224 227 231 218 221 237 235 212 212 224 213 226
103 260 212 130 117 126 131 139 151 154 158 122 113 20 337 310 301 312 321 319 321 278 261 283 278 262 255 257 239 210 214 242 238 215 268 248 233 231 220 218 220 226 216 216
147 243 9 8 104 132 112 108 107 110 123 140 135 60 337 315 290 266 280 299 317 260 259 267 271 272 269 260 221 193 199 213 211 203 225 239 241 242 226 225 214 209 212 205
211 215 181 231 238 155 127 133 138 121 87 85 114 140 351 314 289 272 274 286 304 293 282 276 268 272 275 265 209 192 221 220 212 214 230 229 231 294 302 257 237 215 210 206
200 201 182 199 208 162 148 161 143 134 139 132 65 125 317 300 290 278 281 290 296 286 280 279 274 266 264 259 215 207 227 239 226 218 221 223 218 212 271 325 350 308 220 213
186 147 153 197 197 187 160 140 105 103 119 136 146 62 2 320 329 317 291 271 266 280 293 287 273 275 272 245 224 235 232 236 232 221 222 226 226 219 206 211 265 311 319 269
232 193 196 198 174 163 129 110 97 95 110 119 124 90 32 339 299 291 293 289 298 313 307 307 305 297 286 251 226 227 228 239 233 234 237 231 227 217 201 203 202 219 314 347
223 200 174 161 173 161 133 132 144 182 185 204 234 238 234 251 254 285 305 326 348 313 297 299 295 292 296 279 259 251 258 264 243 225 242 235 225 192 180 183 195 197 201 205
184 200 183 175 180 186 187 184 184 191 195 215 234 238 242 303 308 306 302 296 273 278 282 275 282 296 306 288 278 282 278 278 264 199 210 219 209 205 201 192 200 204 219 204
194 198 192 185 178 175 181 181 179 176 193 209 219 107 324 255 244 261 273 296 325 325 304 285 289 313 338 335 318 302 301 315 1 181 197 212 203 210 201 184 181 177 218 199
160 164 177 181 171 165 171 179 180 181 188 176 156 217 247 239 237 245 262 321 322 298 293 294 303 338 337 325 333 341 0 13 15 303 198 155 139 189 193 187 192 200 194 189
152 159 168 170 161 158 163 172 166 177 190 164 164 212 294 288 270 264 276 272 256 257 275 288 305 339 317 305 319 338 347 33 82 110 77 107 167 193 203 205 193 183 168 173
123 150 149 145 148 154 164 167 161 185 207 180 177 202 233 268 282 260 168 280 285 292 299 296 323 312 316 334 349 11 8 359 7 148 198 240 197 174 178 178 161 157 157 158
99 114 131 136 145 168 188 171 169 180 202 197 186 175 192 269 299 288 231 234 261 293 301 291 263 289 352 15 18 11 5 2 12 44 70 130 122 120 116 137 142 147 146 154
124 143 151 164 173 180 175 170 181 177 192 186 181 191 209 225 215 176 249 269 251 260 265 254 245 287 327 22 19 358 360 8 12 44 112 166 164 151 147 141 136 135 133 137
284 225 202 185 130 123 154 240 230 202 187 188 197 203 195 197 263 245 217 221 220 222 246 268 280 312 326 356 357 351 346 354 1 20 15 25 81 97 120 131 128 131 134 130
224 151 117 107 126 186 213 221 224 212 169 203 245 274 244 197 200 227 221 217 225 216 269 275 274 303 316 324 326 341 352 355 10 33 42 46 64 83 105 126 131 131 130 127
14 183 201 198 201 214 208 184 187 209 191 183 287 289 266 246 211 186 201 222 222 221 259 279 273 274 271 274 225 163 192 23 43 39 34 40 61 72 69 69 89 108 116 118
345 2 65 28 309 253 209 183 184 195 181 178 223 266 260 244 170 152 148 217 263 271 298 346 316 236 210 185 149 132 127 106 88 69 59 57 71 85 88 83 81 92 107 112